Zurück zum Katalog

ICUBE 1

AktivWissenschaftSSO
NORAD 39432·PAYLOAD·🇵🇰 Pakistan

Gestartet Nov 21, 2013 von Dombarovsky

Loading…

Nächste Überflüge (nächste 24 Stunden)

TLE

AktuellSource: Space-Track

Epoche: Sep 14, 2026, 09:19 UTC

1 39432U 13066S   26257.38828414  .00011106  00000-0  40999-3 0  9990
2 39432  97.5780 244.3403 0016331  25.0182 335.1845 15.27812111698024

Verfolge ICUBE 1 in Echtzeit mit AllMySat

Download on the App Store